Year,Month,Day,Hour,Minute,Value (Times are PST for temperature in C)
2017,07,05,00,00,15.30
2017,07,05,00,01,15.20
2017,07,05,00,02,15.20
2017,07,05,00,03,15.20
2017,07,05,00,04,15.20
2017,07,05,00,05,15.10
2017,07,05,00,06,15.00
2017,07,05,00,07,15.00
2017,07,05,00,08,15.00
2017,07,05,00,09,15.00
2017,07,05,00,10,15.00
2017,07,05,00,11,15.00
2017,07,05,00,12,15.00
2017,07,05,00,13,15.00
2017,07,05,00,14,15.00
2017,07,05,00,15,15.00
2017,07,05,00,16,15.00
2017,07,05,00,17,15.00
2017,07,05,00,18,15.00
2017,07,05,00,19,15.00
2017,07,05,00,20,15.00
2017,07,05,00,21,15.00
2017,07,05,00,22,15.00
2017,07,05,00,23,15.00
2017,07,05,00,24,15.00
2017,07,05,00,25,15.00
2017,07,05,00,26,15.00
2017,07,05,00,27,15.00
2017,07,05,00,28,15.00
2017,07,05,00,29,15.00
2017,07,05,00,30,15.00
2017,07,05,00,31,14.90
2017,07,05,00,32,14.90
2017,07,05,00,33,14.90
2017,07,05,00,34,14.90
2017,07,05,00,35,14.80
2017,07,05,00,36,14.80
2017,07,05,00,37,14.80
2017,07,05,00,38,14.80
2017,07,05,00,39,14.80
2017,07,05,00,40,14.80
2017,07,05,00,41,14.80
2017,07,05,00,42,14.80
2017,07,05,00,43,14.70
2017,07,05,00,44,14.70
2017,07,05,00,45,14.70
2017,07,05,00,46,14.70
2017,07,05,00,47,14.70
2017,07,05,00,48,14.70
2017,07,05,00,49,14.70
2017,07,05,00,50,14.70
2017,07,05,00,51,14.70
2017,07,05,00,52,14.60
2017,07,05,00,53,14.60
2017,07,05,00,54,14.60
2017,07,05,00,55,14.60
2017,07,05,00,56,14.60
2017,07,05,00,57,14.60
2017,07,05,00,58,14.50
2017,07,05,00,59,14.50
2017,07,05,01,00,14.50
2017,07,05,01,01,14.50
2017,07,05,01,02,14.50
2017,07,05,01,03,14.40
2017,07,05,01,04,14.40
2017,07,05,01,05,14.40
2017,07,05,01,06,14.40
2017,07,05,01,07,14.40
2017,07,05,01,08,14.40
2017,07,05,01,09,14.40
2017,07,05,01,10,14.40
2017,07,05,01,11,14.40
2017,07,05,01,12,14.40
2017,07,05,01,13,14.40
2017,07,05,01,14,14.40
2017,07,05,01,15,14.40
2017,07,05,01,16,14.30
2017,07,05,01,17,14.30
2017,07,05,01,18,14.30
2017,07,05,01,19,14.30
2017,07,05,01,20,14.30
2017,07,05,01,21,14.30
2017,07,05,01,22,14.40
2017,07,05,01,23,14.40
2017,07,05,01,24,14.40
2017,07,05,01,25,14.30
2017,07,05,01,26,14.30
2017,07,05,01,27,14.30
2017,07,05,01,28,14.30
2017,07,05,01,29,14.30
2017,07,05,01,30,14.30
2017,07,05,01,31,14.30
2017,07,05,01,32,14.30
2017,07,05,01,33,14.20
2017,07,05,01,34,14.30
2017,07,05,01,35,14.30
2017,07,05,01,36,14.30
2017,07,05,01,37,14.30
2017,07,05,01,38,14.30
2017,07,05,01,39,14.20
2017,07,05,01,40,14.20
2017,07,05,01,41,14.20
2017,07,05,01,42,14.20
2017,07,05,01,43,14.20
2017,07,05,01,44,14.20
2017,07,05,01,45,14.20
2017,07,05,01,46,14.20
2017,07,05,01,47,14.20
2017,07,05,01,48,14.20
2017,07,05,01,49,14.20
2017,07,05,01,50,14.20
2017,07,05,01,51,14.20
2017,07,05,01,52,14.20
2017,07,05,01,53,14.20
2017,07,05,01,54,14.30
2017,07,05,01,55,14.30
2017,07,05,01,56,14.30
2017,07,05,01,57,14.30
2017,07,05,01,58,14.30
2017,07,05,01,59,14.30
2017,07,05,02,00,14.30
2017,07,05,02,01,14.30
2017,07,05,02,02,14.30
2017,07,05,02,03,14.30
2017,07,05,02,04,14.30
2017,07,05,02,05,14.30
2017,07,05,02,06,14.20
2017,07,05,02,07,14.20
2017,07,05,02,08,14.20
2017,07,05,02,09,14.20
2017,07,05,02,10,14.20
2017,07,05,02,11,14.20
2017,07,05,02,12,14.20
2017,07,05,02,13,14.20
2017,07,05,02,14,14.20
2017,07,05,02,15,14.20
2017,07,05,02,16,14.20
2017,07,05,02,17,14.20
2017,07,05,02,18,14.20
2017,07,05,02,19,14.20
2017,07,05,02,20,14.20
2017,07,05,02,21,14.20
2017,07,05,02,22,14.20
2017,07,05,02,23,14.20
2017,07,05,02,24,14.20
2017,07,05,02,25,14.20
2017,07,05,02,26,14.20
2017,07,05,02,27,14.20
2017,07,05,02,28,14.20
2017,07,05,02,29,14.20
2017,07,05,02,30,14.20
2017,07,05,02,31,14.20
2017,07,05,02,32,14.20
2017,07,05,02,33,14.20
2017,07,05,02,34,14.20
2017,07,05,02,35,14.20
2017,07,05,02,36,14.20
2017,07,05,02,37,14.10
2017,07,05,02,38,14.10
2017,07,05,02,39,14.10
2017,07,05,02,40,14.20
2017,07,05,02,41,14.20
2017,07,05,02,42,14.10
2017,07,05,02,43,14.10
2017,07,05,02,44,14.10
2017,07,05,02,45,14.10
2017,07,05,02,46,14.10
2017,07,05,02,47,14.10
2017,07,05,02,48,14.10
2017,07,05,02,49,14.10
2017,07,05,02,50,14.20
2017,07,05,02,51,14.20
2017,07,05,02,52,14.20
2017,07,05,02,53,14.20
2017,07,05,02,54,14.10
2017,07,05,02,55,14.10
2017,07,05,02,56,14.20
2017,07,05,02,57,14.20
2017,07,05,02,58,14.10
2017,07,05,02,59,14.10
2017,07,05,03,00,14.10
2017,07,05,03,01,14.10
2017,07,05,03,02,14.10
2017,07,05,03,03,14.10
2017,07,05,03,04,14.10
2017,07,05,03,05,14.10
2017,07,05,03,06,14.10
2017,07,05,03,07,14.10
2017,07,05,03,08,14.00
2017,07,05,03,09,14.00
2017,07,05,03,10,14.00
2017,07,05,03,11,14.00
2017,07,05,03,12,14.00
2017,07,05,03,13,14.00
2017,07,05,03,14,14.10
2017,07,05,03,15,14.10
2017,07,05,03,16,14.10
2017,07,05,03,17,14.10
2017,07,05,03,18,14.10
2017,07,05,03,19,14.10
2017,07,05,03,20,14.10
2017,07,05,03,21,14.10
2017,07,05,03,22,14.10
2017,07,05,03,23,14.20
2017,07,05,03,24,14.20
2017,07,05,03,25,14.20
2017,07,05,03,26,14.20
2017,07,05,03,27,14.20
2017,07,05,03,28,14.20
2017,07,05,03,29,14.20
2017,07,05,03,30,14.20
2017,07,05,03,31,14.20
2017,07,05,03,32,14.20
2017,07,05,03,33,14.20
2017,07,05,03,34,14.20
2017,07,05,03,35,14.20
2017,07,05,03,36,14.20
2017,07,05,03,37,14.20
2017,07,05,03,38,14.20
2017,07,05,03,39,14.20
2017,07,05,03,40,14.20
2017,07,05,03,41,14.20
2017,07,05,03,42,14.20
2017,07,05,03,43,14.20
2017,07,05,03,44,14.20
2017,07,05,03,45,14.20
2017,07,05,03,46,14.20
2017,07,05,03,47,14.20
2017,07,05,03,48,14.20
2017,07,05,03,49,14.20
2017,07,05,03,50,14.20
2017,07,05,03,51,14.20
2017,07,05,03,52,14.20
2017,07,05,03,53,14.20
2017,07,05,03,54,14.20
2017,07,05,03,55,14.20
2017,07,05,03,56,14.30
2017,07,05,03,57,14.20
2017,07,05,03,58,14.20
2017,07,05,03,59,14.30
2017,07,05,04,00,14.30
2017,07,05,04,01,14.30
2017,07,05,04,02,14.20
2017,07,05,04,03,14.20
2017,07,05,04,04,14.20
2017,07,05,04,05,14.20
2017,07,05,04,06,14.20
2017,07,05,04,07,14.20
2017,07,05,04,08,14.20
2017,07,05,04,09,14.20
2017,07,05,04,10,14.20
2017,07,05,04,11,14.20
2017,07,05,04,12,14.20
2017,07,05,04,13,14.20
2017,07,05,04,14,14.20
2017,07,05,04,15,14.20
2017,07,05,04,16,14.20
2017,07,05,04,17,14.20
2017,07,05,04,18,14.20
2017,07,05,04,19,14.20
2017,07,05,04,20,14.20
2017,07,05,04,21,14.20
2017,07,05,04,22,14.20
2017,07,05,04,23,14.20
2017,07,05,04,24,14.20
2017,07,05,04,25,14.20
2017,07,05,04,26,14.20
2017,07,05,04,27,14.20
2017,07,05,04,28,14.20
2017,07,05,04,29,14.20
2017,07,05,04,30,14.20
2017,07,05,04,31,14.20
2017,07,05,04,32,14.30
2017,07,05,04,33,14.30
2017,07,05,04,34,14.30
2017,07,05,04,35,14.30
2017,07,05,04,36,14.30
2017,07,05,04,37,14.30
2017,07,05,04,38,14.20
2017,07,05,04,39,14.20
2017,07,05,04,40,14.20
2017,07,05,04,41,14.20
2017,07,05,04,42,14.20
2017,07,05,04,43,14.20
2017,07,05,04,44,14.20
2017,07,05,04,45,14.20
2017,07,05,04,46,14.10
2017,07,05,04,47,14.10
2017,07,05,04,48,14.10
2017,07,05,04,49,14.10
2017,07,05,04,50,14.10
2017,07,05,04,51,14.10
2017,07,05,04,52,14.10
2017,07,05,04,53,14.10
2017,07,05,04,54,14.10
2017,07,05,04,55,14.10
2017,07,05,04,56,14.10
2017,07,05,04,57,14.10
2017,07,05,04,58,14.10
2017,07,05,04,59,14.10
2017,07,05,05,00,14.10
2017,07,05,05,01,14.10
2017,07,05,05,02,14.10
2017,07,05,05,03,14.10
2017,07,05,05,04,14.10
2017,07,05,05,05,14.10
2017,07,05,05,06,14.10
2017,07,05,05,07,14.10
2017,07,05,05,08,14.00
2017,07,05,05,09,14.00
2017,07,05,05,10,14.00
2017,07,05,05,11,13.90
2017,07,05,05,12,13.90
2017,07,05,05,13,13.90
2017,07,05,05,14,13.90
2017,07,05,05,15,13.90
2017,07,05,05,16,13.90
2017,07,05,05,17,13.90
2017,07,05,05,18,13.80
2017,07,05,05,19,13.80
2017,07,05,05,20,13.80
2017,07,05,05,21,13.80
2017,07,05,05,22,13.80
2017,07,05,05,23,13.80
2017,07,05,05,24,13.80
2017,07,05,05,25,13.80
2017,07,05,05,26,13.70
2017,07,05,05,27,13.70
2017,07,05,05,28,13.70
2017,07,05,05,29,13.70
2017,07,05,05,30,13.70
2017,07,05,05,31,13.60
2017,07,05,05,32,13.60
2017,07,05,05,33,13.60
2017,07,05,05,34,13.50
2017,07,05,05,35,13.50
2017,07,05,05,36,13.50
2017,07,05,05,37,13.40
2017,07,05,05,38,13.40
2017,07,05,05,39,13.40
2017,07,05,05,40,13.40
2017,07,05,05,41,13.40
2017,07,05,05,42,13.40
2017,07,05,05,43,13.40
2017,07,05,05,44,13.40
2017,07,05,05,45,13.40
2017,07,05,05,46,13.40
2017,07,05,05,47,13.40
2017,07,05,05,48,13.30
2017,07,05,05,49,13.30
2017,07,05,05,50,13.30
2017,07,05,05,51,13.30
2017,07,05,05,52,13.30
2017,07,05,05,53,13.30
2017,07,05,05,54,13.30
2017,07,05,05,55,13.30
2017,07,05,05,56,13.30
2017,07,05,05,57,13.30
2017,07,05,05,58,13.30
2017,07,05,05,59,13.30
2017,07,05,06,00,13.30
2017,07,05,06,01,13.30
2017,07,05,06,02,13.30
2017,07,05,06,03,13.20
2017,07,05,06,04,13.20
2017,07,05,06,05,13.20
2017,07,05,06,06,13.20
2017,07,05,06,07,13.20
2017,07,05,06,08,13.20
2017,07,05,06,09,13.20
2017,07,05,06,10,13.20
2017,07,05,06,11,13.20
2017,07,05,06,12,13.20
2017,07,05,06,13,13.20
2017,07,05,06,14,13.20
2017,07,05,06,15,13.20
2017,07,05,06,16,13.30
2017,07,05,06,17,13.30
2017,07,05,06,18,13.30
2017,07,05,06,19,13.30
2017,07,05,06,20,13.30
2017,07,05,06,21,13.30
2017,07,05,06,22,13.30
2017,07,05,06,23,13.30
2017,07,05,06,24,13.30
2017,07,05,06,25,13.30
2017,07,05,06,26,13.30
2017,07,05,06,27,13.30
2017,07,05,06,28,13.30
2017,07,05,06,29,13.40
2017,07,05,06,30,13.40
2017,07,05,06,31,13.40
2017,07,05,06,32,13.40
2017,07,05,06,33,13.40
2017,07,05,06,34,13.50
2017,07,05,06,35,13.50
2017,07,05,06,36,13.50
2017,07,05,06,37,13.50
2017,07,05,06,38,13.60
2017,07,05,06,39,13.60
2017,07,05,06,40,13.60
2017,07,05,06,41,13.60
2017,07,05,06,42,13.70
2017,07,05,06,43,13.70
2017,07,05,06,44,13.70
2017,07,05,06,45,13.70
2017,07,05,06,46,13.80
2017,07,05,06,47,13.80
2017,07,05,06,48,13.80
2017,07,05,06,49,13.90
2017,07,05,06,50,13.90
2017,07,05,06,51,14.00
2017,07,05,06,52,14.00
2017,07,05,06,53,14.10
2017,07,05,06,54,14.10
2017,07,05,06,55,14.20
2017,07,05,06,56,14.20
2017,07,05,06,57,14.30
2017,07,05,06,58,14.50
2017,07,05,06,59,14.60
2017,07,05,07,00,14.70
2017,07,05,07,01,14.90
2017,07,05,07,02,15.00
2017,07,05,07,03,15.00
2017,07,05,07,04,15.20
2017,07,05,07,05,15.30
2017,07,05,07,06,15.40
2017,07,05,07,07,15.60
2017,07,05,07,08,15.70
2017,07,05,07,09,15.80
2017,07,05,07,10,15.90
2017,07,05,07,11,16.00
2017,07,05,07,12,16.20
2017,07,05,07,13,16.20
2017,07,05,07,14,16.20
2017,07,05,07,15,16.30
2017,07,05,07,16,16.40
2017,07,05,07,17,16.40
2017,07,05,07,18,16.50
2017,07,05,07,19,16.60
2017,07,05,07,20,16.80
2017,07,05,07,21,16.90
2017,07,05,07,22,17.00
2017,07,05,07,23,17.10
2017,07,05,07,24,17.20
2017,07,05,07,25,17.30
2017,07,05,07,26,17.40
2017,07,05,07,27,17.50
2017,07,05,07,28,17.60
2017,07,05,07,29,17.70
2017,07,05,07,30,17.80
2017,07,05,07,31,17.90
2017,07,05,07,32,17.90
2017,07,05,07,33,18.00
2017,07,05,07,34,18.10
2017,07,05,07,35,18.20
2017,07,05,07,36,18.20
2017,07,05,07,37,18.30
2017,07,05,07,38,18.30
2017,07,05,07,39,18.30
2017,07,05,07,40,18.30
2017,07,05,07,41,18.30
2017,07,05,07,42,18.30
2017,07,05,07,43,18.30
2017,07,05,07,44,18.20
2017,07,05,07,45,18.20
2017,07,05,07,46,18.20
2017,07,05,07,47,18.10
2017,07,05,07,48,18.10
2017,07,05,07,49,18.10
2017,07,05,07,50,18.10
2017,07,05,07,51,18.20
2017,07,05,07,52,18.20
2017,07,05,07,53,18.20
2017,07,05,07,54,18.30
2017,07,05,07,55,18.30
2017,07,05,07,56,18.30
2017,07,05,07,57,18.40
2017,07,05,07,58,18.40
2017,07,05,07,59,18.50
2017,07,05,08,00,18.50
2017,07,05,08,01,18.60
2017,07,05,08,02,18.60
2017,07,05,08,03,18.60
2017,07,05,08,04,18.70
2017,07,05,08,05,18.70
2017,07,05,08,06,18.70
2017,07,05,08,07,18.70
2017,07,05,08,08,18.70
2017,07,05,08,09,18.70
2017,07,05,08,10,18.70
2017,07,05,08,11,18.80
2017,07,05,08,12,18.80
2017,07,05,08,13,18.80
2017,07,05,08,14,18.90
2017,07,05,08,15,18.90
2017,07,05,08,16,18.90
2017,07,05,08,17,19.00
2017,07,05,08,18,19.00
2017,07,05,08,19,19.10
2017,07,05,08,20,19.10
2017,07,05,08,21,19.10
2017,07,05,08,22,19.10
2017,07,05,08,23,19.20
2017,07,05,08,24,19.20
2017,07,05,08,25,19.20
2017,07,05,08,26,19.20
2017,07,05,08,27,19.10
2017,07,05,08,28,19.10
2017,07,05,08,29,19.10
2017,07,05,08,30,19.10
2017,07,05,08,31,19.10
2017,07,05,08,32,19.10
2017,07,05,08,33,19.10
2017,07,05,08,34,19.10
2017,07,05,08,35,19.10
2017,07,05,08,36,19.10
2017,07,05,08,37,19.10
2017,07,05,08,38,19.10
2017,07,05,08,39,19.10
2017,07,05,08,40,19.10
2017,07,05,08,41,19.10
2017,07,05,08,42,19.20
2017,07,05,08,43,19.20
2017,07,05,08,44,19.20
2017,07,05,08,45,19.20
2017,07,05,08,46,19.30
2017,07,05,08,47,19.30
2017,07,05,08,48,19.30
2017,07,05,08,49,19.30
2017,07,05,08,50,19.40
2017,07,05,08,51,19.40
2017,07,05,08,52,19.50
2017,07,05,08,53,19.50
2017,07,05,08,54,19.50
2017,07,05,08,55,19.50
2017,07,05,08,56,19.50
2017,07,05,08,57,19.50
2017,07,05,08,58,19.50
2017,07,05,08,59,19.50
2017,07,05,09,00,19.50
2017,07,05,09,01,19.60
2017,07,05,09,02,19.60
2017,07,05,09,03,19.60
2017,07,05,09,04,19.60
2017,07,05,09,05,19.60
2017,07,05,09,06,19.70
2017,07,05,09,07,19.70
2017,07,05,09,08,19.70
2017,07,05,09,09,19.70
2017,07,05,09,10,19.70
2017,07,05,09,11,19.80
2017,07,05,09,12,19.80
2017,07,05,09,13,19.80
2017,07,05,09,14,19.90
2017,07,05,09,15,19.90
2017,07,05,09,16,19.90
2017,07,05,09,17,20.00
2017,07,05,09,18,20.00
2017,07,05,09,19,20.00
2017,07,05,09,20,20.10
2017,07,05,09,21,20.10
2017,07,05,09,22,20.10
2017,07,05,09,23,20.10
2017,07,05,09,24,20.10
2017,07,05,09,25,20.10
2017,07,05,09,26,20.10
2017,07,05,09,27,20.10
2017,07,05,09,28,20.10
2017,07,05,09,29,20.10
2017,07,05,09,30,20.20
2017,07,05,09,31,20.20
2017,07,05,09,32,20.20
2017,07,05,09,33,20.20
2017,07,05,09,34,20.30
2017,07,05,09,35,20.30
2017,07,05,09,36,20.30
2017,07,05,09,37,20.40
2017,07,05,09,38,20.40
2017,07,05,09,39,20.50
2017,07,05,09,40,20.50
2017,07,05,09,41,20.50
2017,07,05,09,42,20.60
2017,07,05,09,43,20.60
2017,07,05,09,44,20.60
2017,07,05,09,45,20.60
2017,07,05,09,46,20.60
2017,07,05,09,47,20.60
2017,07,05,09,48,20.60
2017,07,05,09,49,20.70
2017,07,05,09,50,20.70
2017,07,05,09,51,20.70
2017,07,05,09,52,20.70
2017,07,05,09,53,20.70
2017,07,05,09,54,20.70
2017,07,05,09,55,20.70
2017,07,05,09,56,20.70
2017,07,05,09,57,20.70
2017,07,05,09,58,20.70
2017,07,05,09,59,20.70
2017,07,05,10,00,20.70
2017,07,05,10,01,20.70
2017,07,05,10,02,20.80
2017,07,05,10,03,20.80
2017,07,05,10,04,20.80
2017,07,05,10,05,20.90
2017,07,05,10,06,20.90
2017,07,05,10,07,21.00
2017,07,05,10,08,21.10
2017,07,05,10,09,21.10
2017,07,05,10,10,21.20
2017,07,05,10,11,21.20
2017,07,05,10,12,21.30
2017,07,05,10,13,21.40
2017,07,05,10,14,21.40
2017,07,05,10,15,21.40
2017,07,05,10,16,21.40
2017,07,05,10,17,21.50
2017,07,05,10,18,21.40
2017,07,05,10,19,21.50
2017,07,05,10,20,21.50
2017,07,05,10,21,21.50
2017,07,05,10,22,21.50
2017,07,05,10,23,21.50
2017,07,05,10,24,21.50
2017,07,05,10,25,21.50
2017,07,05,10,26,21.40
2017,07,05,10,27,21.40
2017,07,05,10,28,21.40
2017,07,05,10,29,21.40
2017,07,05,10,30,21.40
2017,07,05,10,31,21.40
2017,07,05,10,32,21.40
2017,07,05,10,33,21.40
2017,07,05,10,34,21.40
2017,07,05,10,35,21.40
2017,07,05,10,36,21.40
2017,07,05,10,37,21.40
2017,07,05,10,38,21.40
2017,07,05,10,39,21.40
2017,07,05,10,40,21.40
2017,07,05,10,41,21.30
2017,07,05,10,42,21.30
2017,07,05,10,43,21.30
2017,07,05,10,44,21.30
2017,07,05,10,45,21.30
2017,07,05,10,46,21.30
2017,07,05,10,47,21.40
2017,07,05,10,48,21.40
2017,07,05,10,49,21.40
2017,07,05,10,50,21.50
2017,07,05,10,51,21.60
2017,07,05,10,52,21.60
2017,07,05,10,53,21.70
2017,07,05,10,54,21.70
2017,07,05,10,55,21.80
2017,07,05,10,56,21.80
2017,07,05,10,57,21.80
2017,07,05,10,58,21.90
2017,07,05,10,59,21.90
2017,07,05,11,00,22.00
2017,07,05,11,01,22.00
2017,07,05,11,02,22.10
2017,07,05,11,03,22.10
2017,07,05,11,04,22.10
2017,07,05,11,05,22.20
2017,07,05,11,06,22.20
2017,07,05,11,07,22.30
2017,07,05,11,08,22.30
2017,07,05,11,09,22.30
2017,07,05,11,10,22.30
2017,07,05,11,11,22.30
2017,07,05,11,12,22.30
2017,07,05,11,13,22.30
2017,07,05,11,14,22.30
2017,07,05,11,15,22.30
2017,07,05,11,16,22.40
2017,07,05,11,17,22.30
2017,07,05,11,18,22.30
2017,07,05,11,19,22.20
2017,07,05,11,20,22.20
2017,07,05,11,21,22.20
2017,07,05,11,22,22.30
2017,07,05,11,23,22.30
2017,07,05,11,24,22.30
2017,07,05,11,25,22.30
2017,07,05,11,26,22.30
2017,07,05,11,27,22.30
2017,07,05,11,28,22.30
2017,07,05,11,29,22.30
2017,07,05,11,30,22.30
2017,07,05,11,31,22.30
2017,07,05,11,32,22.40
2017,07,05,11,33,22.40
2017,07,05,11,34,22.50
2017,07,05,11,35,22.60
2017,07,05,11,36,22.70
2017,07,05,11,37,22.70
2017,07,05,11,38,22.80
2017,07,05,11,39,22.90
2017,07,05,11,40,23.00
2017,07,05,11,41,23.00
2017,07,05,11,42,23.10
2017,07,05,11,43,23.10
2017,07,05,11,44,23.20
2017,07,05,11,45,23.20
2017,07,05,11,46,23.30
2017,07,05,11,47,23.30
2017,07,05,11,48,23.30
2017,07,05,11,49,23.30
2017,07,05,11,50,23.30
2017,07,05,11,51,23.30
2017,07,05,11,52,23.30
2017,07,05,11,53,23.30
2017,07,05,11,54,23.30
2017,07,05,11,55,23.40
2017,07,05,11,56,23.40
2017,07,05,11,57,23.50
2017,07,05,11,58,23.60
2017,07,05,11,59,23.60
2017,07,05,12,00,23.60
2017,07,05,12,01,23.60
2017,07,05,12,02,23.60
2017,07,05,12,03,23.50
2017,07,05,12,04,23.50
2017,07,05,12,05,23.50
2017,07,05,12,06,23.50
2017,07,05,12,07,23.60
2017,07,05,12,08,23.60
2017,07,05,12,09,23.60
2017,07,05,12,10,23.60
2017,07,05,12,11,23.70
2017,07,05,12,12,23.70
2017,07,05,12,13,23.70
2017,07,05,12,14,23.80
2017,07,05,12,15,23.80
2017,07,05,12,16,23.80
2017,07,05,12,17,23.80
2017,07,05,12,18,23.80
2017,07,05,12,19,23.90
2017,07,05,12,20,23.90
2017,07,05,12,21,24.00
2017,07,05,12,22,24.10
2017,07,05,12,23,24.00
2017,07,05,12,24,23.90
2017,07,05,12,25,23.80
2017,07,05,12,26,23.80
2017,07,05,12,27,23.80
2017,07,05,12,28,23.90
2017,07,05,12,29,23.90
2017,07,05,12,30,23.90
2017,07,05,12,31,23.90
2017,07,05,12,32,23.90
2017,07,05,12,33,24.00
2017,07,05,12,34,24.00
2017,07,05,12,35,24.00
2017,07,05,12,36,23.90
2017,07,05,12,37,24.00
2017,07,05,12,38,24.00
2017,07,05,12,39,23.90
2017,07,05,12,40,23.90
2017,07,05,12,41,23.80
2017,07,05,12,42,23.80
2017,07,05,12,43,23.90
2017,07,05,12,44,23.90
2017,07,05,12,45,24.00
2017,07,05,12,46,23.90
2017,07,05,12,47,24.00
2017,07,05,12,48,24.00
2017,07,05,12,49,24.10
2017,07,05,12,50,24.20
2017,07,05,12,51,24.20
2017,07,05,12,52,24.30
2017,07,05,12,53,24.30
2017,07,05,12,54,24.40
2017,07,05,12,55,24.40
2017,07,05,12,56,24.50
2017,07,05,12,57,24.40
2017,07,05,12,58,24.40
2017,07,05,12,59,24.40
2017,07,05,13,00,24.40
2017,07,05,13,01,24.30
2017,07,05,13,02,24.30
2017,07,05,13,03,24.30
2017,07,05,13,04,24.30
2017,07,05,13,05,24.30
2017,07,05,13,06,24.30
2017,07,05,13,07,24.40
2017,07,05,13,08,24.40
2017,07,05,13,09,24.40
2017,07,05,13,10,24.40
2017,07,05,13,11,24.50
2017,07,05,13,12,24.50
2017,07,05,13,13,24.60
2017,07,05,13,14,24.60
2017,07,05,13,15,24.70
2017,07,05,13,16,24.70
2017,07,05,13,17,24.70
2017,07,05,13,18,24.70
2017,07,05,13,19,24.70
2017,07,05,13,20,24.80
2017,07,05,13,21,24.80
2017,07,05,13,22,24.80
2017,07,05,13,23,24.80
2017,07,05,13,24,24.70
2017,07,05,13,25,24.60
2017,07,05,13,26,24.60
2017,07,05,13,27,24.50
2017,07,05,13,28,24.50
2017,07,05,13,29,24.50
2017,07,05,13,30,24.50
2017,07,05,13,31,24.50
2017,07,05,13,32,24.60
2017,07,05,13,33,24.60
2017,07,05,13,34,24.70
2017,07,05,13,35,24.70
2017,07,05,13,36,24.80
2017,07,05,13,37,24.80
2017,07,05,13,38,24.80
2017,07,05,13,39,24.80
2017,07,05,13,40,24.80
2017,07,05,13,41,24.80
2017,07,05,13,42,24.80
2017,07,05,13,43,24.80
2017,07,05,13,44,24.90
2017,07,05,13,45,24.90
2017,07,05,13,46,24.90
2017,07,05,13,47,24.90
2017,07,05,13,48,25.00
2017,07,05,13,49,24.90
2017,07,05,13,50,24.90
2017,07,05,13,51,24.90
2017,07,05,13,52,25.00
2017,07,05,13,53,25.00
2017,07,05,13,54,25.10
2017,07,05,13,55,25.20
2017,07,05,13,56,25.30
2017,07,05,13,57,25.30
2017,07,05,13,58,25.50
2017,07,05,13,59,25.50
2017,07,05,14,00,25.60
2017,07,05,14,01,25.70
2017,07,05,14,02,25.70
2017,07,05,14,03,25.80
2017,07,05,14,04,25.80
2017,07,05,14,05,25.80
2017,07,05,14,06,25.80
2017,07,05,14,07,25.90
2017,07,05,14,08,25.90
2017,07,05,14,09,25.90
2017,07,05,14,10,25.90
2017,07,05,14,11,25.90
2017,07,05,14,12,25.90
2017,07,05,14,13,25.90
2017,07,05,14,14,25.90
2017,07,05,14,15,26.10
2017,07,05,14,16,26.20
2017,07,05,14,17,26.20
2017,07,05,14,18,26.20
2017,07,05,14,19,26.20
2017,07,05,14,20,26.20
2017,07,05,14,21,26.30
2017,07,05,14,22,26.20
2017,07,05,14,23,26.20
2017,07,05,14,24,26.20
2017,07,05,14,25,26.20
2017,07,05,14,26,26.20
2017,07,05,14,27,26.20
2017,07,05,14,28,26.20
2017,07,05,14,29,26.30
2017,07,05,14,30,26.30
2017,07,05,14,31,26.40
2017,07,05,14,32,26.40
2017,07,05,14,33,26.40
2017,07,05,14,34,26.40
2017,07,05,14,35,26.40
2017,07,05,14,36,26.40
2017,07,05,14,37,26.30
2017,07,05,14,38,26.30
2017,07,05,14,39,26.30
2017,07,05,14,40,26.30
2017,07,05,14,41,26.20
2017,07,05,14,42,26.20
2017,07,05,14,43,26.30
2017,07,05,14,44,26.30
2017,07,05,14,45,26.30
2017,07,05,14,46,26.30
2017,07,05,14,47,26.30
2017,07,05,14,48,26.20
2017,07,05,14,49,26.20
2017,07,05,14,50,26.20
2017,07,05,14,51,26.20
2017,07,05,14,52,26.30
2017,07,05,14,53,26.30
2017,07,05,14,54,26.40
2017,07,05,14,55,26.40
2017,07,05,14,56,26.50
2017,07,05,14,57,26.60
2017,07,05,14,58,26.50
2017,07,05,14,59,26.60
2017,07,05,15,00,26.70
2017,07,05,15,01,26.60
2017,07,05,15,02,26.60
2017,07,05,15,03,26.60
2017,07,05,15,04,26.70
2017,07,05,15,05,26.80
2017,07,05,15,06,26.80
2017,07,05,15,07,26.80
2017,07,05,15,08,26.90
2017,07,05,15,09,26.90
2017,07,05,15,10,26.90
2017,07,05,15,11,26.90
2017,07,05,15,12,27.00
2017,07,05,15,13,27.00
2017,07,05,15,14,27.10
2017,07,05,15,15,27.10
2017,07,05,15,16,27.10
2017,07,05,15,17,27.10
2017,07,05,15,18,27.10
2017,07,05,15,19,27.20
2017,07,05,15,20,27.20
2017,07,05,15,21,27.30
2017,07,05,15,22,27.30
2017,07,05,15,23,27.20
2017,07,05,15,24,27.20
2017,07,05,15,25,27.20
2017,07,05,15,26,27.20
2017,07,05,15,27,27.20
2017,07,05,15,28,27.20
2017,07,05,15,29,27.30
2017,07,05,15,30,27.30
2017,07,05,15,31,27.30
2017,07,05,15,32,27.30
2017,07,05,15,33,27.20
2017,07,05,15,34,27.20
2017,07,05,15,35,27.20
2017,07,05,15,36,27.20
2017,07,05,15,37,27.20
2017,07,05,15,38,27.30
2017,07,05,15,39,27.30
2017,07,05,15,40,27.40
2017,07,05,15,41,27.40
2017,07,05,15,42,27.40
2017,07,05,15,43,27.30
2017,07,05,15,44,27.40
2017,07,05,15,45,27.40
2017,07,05,15,46,27.40
2017,07,05,15,47,27.50
2017,07,05,15,48,27.40
2017,07,05,15,49,27.40
2017,07,05,15,50,27.50
2017,07,05,15,51,27.60
2017,07,05,15,52,27.60
2017,07,05,15,53,27.60
2017,07,05,15,54,27.60
2017,07,05,15,55,27.60
2017,07,05,15,56,27.50
2017,07,05,15,57,27.60
2017,07,05,15,58,27.60
2017,07,05,15,59,27.70
2017,07,05,16,00,27.70
2017,07,05,16,01,27.80
2017,07,05,16,02,27.80
2017,07,05,16,03,27.90
2017,07,05,16,04,27.90
2017,07,05,16,05,28.00
2017,07,05,16,06,28.00
2017,07,05,16,07,28.10
2017,07,05,16,08,28.20
2017,07,05,16,09,28.30
2017,07,05,16,10,28.40
2017,07,05,16,11,28.50
2017,07,05,16,12,28.60
2017,07,05,16,13,28.60
2017,07,05,16,14,28.70
2017,07,05,16,15,28.70
2017,07,05,16,16,28.80
2017,07,05,16,17,28.80
2017,07,05,16,18,28.70
2017,07,05,16,19,28.60
2017,07,05,16,20,28.50
2017,07,05,16,21,28.40
2017,07,05,16,22,28.30
2017,07,05,16,23,28.30
2017,07,05,16,24,28.30
2017,07,05,16,25,28.30
2017,07,05,16,26,28.20
2017,07,05,16,27,28.20
2017,07,05,16,28,28.10
2017,07,05,16,29,28.10
2017,07,05,16,30,28.10
2017,07,05,16,31,28.20
2017,07,05,16,32,28.20
2017,07,05,16,33,28.30
2017,07,05,16,34,28.40
2017,07,05,16,35,28.40
2017,07,05,16,36,28.50
2017,07,05,16,37,28.50
2017,07,05,16,38,28.60
2017,07,05,16,39,28.60
2017,07,05,16,40,28.60
2017,07,05,16,41,28.60
2017,07,05,16,42,28.60
2017,07,05,16,43,28.60
2017,07,05,16,44,28.60
2017,07,05,16,45,28.60
2017,07,05,16,46,28.70
2017,07,05,16,47,28.70
2017,07,05,16,48,28.70
2017,07,05,16,49,28.70
2017,07,05,16,50,28.70
2017,07,05,16,51,28.70
2017,07,05,16,52,28.60
2017,07,05,16,53,28.50
2017,07,05,16,54,28.50
2017,07,05,16,55,28.50
2017,07,05,16,56,28.60
2017,07,05,16,57,28.60
2017,07,05,16,58,28.50
2017,07,05,16,59,28.50
2017,07,05,17,00,28.40
2017,07,05,17,01,28.40
2017,07,05,17,02,28.40
2017,07,05,17,03,28.50
2017,07,05,17,04,28.60
2017,07,05,17,05,28.70
2017,07,05,17,06,28.70
2017,07,05,17,07,28.70
2017,07,05,17,08,28.70
2017,07,05,17,09,28.60
2017,07,05,17,10,28.60
2017,07,05,17,11,28.60
2017,07,05,17,12,28.60
2017,07,05,17,13,28.50
2017,07,05,17,14,28.60
2017,07,05,17,15,28.60
2017,07,05,17,16,28.20
2017,07,05,17,17,28.00
2017,07,05,17,18,28.20
2017,07,05,17,19,27.90